Regional Weather Roundup
Issued by NWS Newport/Morehead, NC

Current Version | Previous Version | Text Only | Print | Product List | Glossary On
Versions: 1 2 3 4 5 6 7 8 9 10 11 12 13 14 15 16 17 18 19 20 21 22 23 24 25 26 27 28 29 30 31 32 33 34 35 36 37 38 39 40 41 42 43 44 45 46 47 48 49 50
631 ASUS42 KMHX 190025 RWRMHX WEATHER ROUNDUP FOR EASTERN NORTH CAROLINA NATIONAL WEATHER SERVICE NEWPORT/MOREHEAD CITY NC 700 PM EST THU JAN 18 2018 NOTE: "FAIR" INDICATES FEW OR NO CLOUDS BELOW 12,000 FEET WITH NO SIGNIFICANT WEATHER AND/OR OBSTRUCTIONS TO VISIBILITY NCZ015>017-031-032-045>047-102-103-190100- NORTH COAST CITY SKY/WX TMP DP RH WIND PRES REMARKS EDENTON FAIR 34 24 67 W8 30.20S ELIZABETH CITY FAIR 32 24 72 MISG 30.18R KITTY HAWK FAIR 32 21 65 MISG 30.15S MANTEO FAIR 32 20 61 W9 30.18S $$ NCZ045>047-081-094-103-104-190100- CENTRAL COAST CITY SKY/WX TMP DP RH WIND PRES REMARKS FRISCO FAIR 36 24 62 W12G23 30.20R $$ NCZ095-097-098-100-101-190100- SOUTHERN COAST CITY SKY/WX TMP DP RH WIND PRES REMARKS BEAUFORT FAIR 32 20 61 W9 30.24R CEDAR ISLAND NOT AVBL JACKSONVILLE FAIR 30 19 63 W5 30.24F PINEY ISLAND NOT AVBL WILMINGTON FAIR 32 17 54 W5 30.26R $$ NCZ011>013-027>030-043-044-078>080-089-090>093-098-190100- COASTAL PLAIN CITY SKY/WX TMP DP RH WIND PRES REMARKS AHOSKIE FAIR 26 20 79 CALM 30.19S CLINTON FAIR 29 22 74 CALM 30.26S ELIZABETHTOWN NOT AVBL GOLDSBORO FAIR 29 19 67 SW5 30.22S GREENVILLE FAIR 32 21 64 W6 30.24S HAVELOCK NOT AVBL KENANSVILLE FAIR 27 19 74 SW3 30.25S KINSTON FAIR 30 19 64 SW5 30.24F NEW BERN FAIR 30 19 63 W8 30.25R RICHLANDS FAIR 29 21 72 CALM 30.24F ROCKY MOUNT NOT AVBL WASHINGTON FAIR 29 20 68 CALM 30.23R WHITEVILLE FAIR 31 19 61 CALM 30.27R $$ AMZ130-135-150-152-154-156-158-170-250-252-270-ANZ085-086-088-633-658-670-190100- MARINE OBSERVATIONS STATION/POSITION TIME TEMP WIND PRES WAVE SWELL AIR SEA DIR/SP/G HT/PER HT/PER (UTC) (F) (DEG/KT/KT) (MB) (FT/S) (FT/S) CHESAPEAKE LIGHT NOT AVBL 64 E VA BEACH 2350 41 58 270/ 21/ 29 1019.9 7/ 6 3/11 DUCK 0000 34 38 270/ 15/ 21 1020.9 2 E DUCK 0000 39 N/A 4/ 8 2/11 OREGON INLET 0000 33 37 260/ 11/ 14 1021.4 13E OREGON INLT 2348 42 N/A 6/ 9 5/ 9 HATTERAS CG 0000 38 41 280/ 20/ 22 1022.2 DIAMOND BUOY 0010 40 42 290/ 19/ 23 1022.5 CAPE LOOKOUT 0000 290/ 20/ 22 1023.6 BEAUFORT LAB 0000 34 44 310/ 7/ 12 1023.8 30 SE NEW RVR IN 0008 41 57 330/ 14/ 19 1024.2 30 SE NEW RVR IN 0000 57 N/A 4/12 2/12 27 SE WRIGHTSVLE 2308 41 60 300/ 16/ 23 1023.9 5 SE WRIGHTSVLE 0008 38 46 310/ 10/ 14 1024.0 225 S CAPE HAT 2350 54 70 340/ 17/ 23 1022.1 11/ 9 7/ 9 41 SE CHARLESTON 0010 47 69 320/ 14/ 17 1025.3 $$

USA.gov is the U.S. government's official web portal to all federal, state and local government web resources and services.